Melfa, VA

1:51 PM EDT on June 26, 2017 (GMT -0400)
Accomack County

Weather History for KMFV - June, 2013

Change the Weather History Date:

Friday, June 14, 2013

  Actual Average (KWAL) Record (KWAL)
Temperature  
Mean Temperature 68 °F -  
Max Temperature 73 °F 77 °F 92 °F (1988)
Min Temperature 64 °F 62 °F 49 °F (1979)
Cooling Degree Days 4    
Growing Degree Days 18 (Base 50)    
Moisture  
Dew Point 58 °F    
Average Humidity 68    
Maximum Humidity 88    
Minimum Humidity 47    
Precipitation  
Precipitation 0.05 in - - ()
Sea Level Pressure  
Sea Level Pressure 29.80 in    
Wind  
Wind Speed 12 mph (NW)    
Max Wind Speed 18 mph    
Max Gust Speed 28 mph    
Visibility 10 miles    
Events Rain    
Averages and records for this station are not official NWS values.
T = Trace of Precipitation, MM = Missing Value Source: NWS Daily Summary

Daily Weather History Graph

Daily Weather History Graph

Search for Another Location

Airport or City:

Trip Planner

Search our weather history database for the weather conditions in past years. The results will help you decide how hot, cold, wet, or windy it might be!

Date:

Astronomy

Jun. 14, 2013 Rise Set
Actual Time 5:40 AM EDT 8:25 PM EDT
Civil Twilight 5:09 AM EDT 8:57 PM EDT
Nautical Twilight 4:30 AM EDT 9:36 PM EDT
Astronomical Twilight 3:46 AM EDT 10:20 PM EDT
Moon 11:08 AM EDT (6/14) No Moon Set
Length of Visible Light 15h 47m
Length of Day
14h 45m
Waxing Crescent, 30% of the Moon is Illuminated
Jun 14
Waxing Crescent
Jun 16
First Quarter
Jun 23
Full
Jun 30
Last Quarter
Jul 8
New

Hourly Weather History & Observations

Time (EDT) Temp. Dew Point Humidity Pressure Visibility Wind Dir Wind Speed Gust Speed Precip Events Conditions
12:16 AM 73.4 °F 64.4 °F 73% 29.59 in 10.0 mi WNW 17.3 mph 26.5 mph N/A   Scattered Clouds
12:37 AM 73.4 °F 62.6 °F 69% 29.59 in 10.0 mi WNW 18.4 mph 23.0 mph N/A   Scattered Clouds
12:56 AM 73.4 °F 64.4 °F 73% 29.60 in 10.0 mi WNW 15.0 mph 20.7 mph N/A   Scattered Clouds
1:19 AM 73.4 °F 62.6 °F 69% 29.60 in 10.0 mi WNW 12.7 mph 20.7 mph N/A   Scattered Clouds
1:36 AM 71.6 °F 62.6 °F 73% 29.60 in 10.0 mi WNW 15.0 mph 20.7 mph N/A   Scattered Clouds
1:56 AM 71.6 °F 60.8 °F 69% 29.61 in 10.0 mi WNW 16.1 mph 24.2 mph N/A   Clear
2:16 AM 71.6 °F 60.8 °F 69% 29.61 in 10.0 mi WNW 15.0 mph 18.4 mph N/A   Clear
2:37 AM 71.6 °F 60.8 °F 69% 29.61 in 10.0 mi WNW 13.8 mph 24.2 mph N/A   Clear
2:56 AM 71.6 °F 60.8 °F 69% 29.61 in 10.0 mi WNW 15.0 mph 19.6 mph N/A   Scattered Clouds
3:16 AM 71.6 °F 60.8 °F 69% 29.61 in 10.0 mi WNW 12.7 mph 23.0 mph N/A   Scattered Clouds
3:38 AM 71.6 °F 60.8 °F 69% 29.61 in 10.0 mi WNW 16.1 mph 25.3 mph N/A   Mostly Cloudy
3:57 AM 71.6 °F 60.8 °F 69% 29.62 in 10.0 mi WNW 10.4 mph 20.7 mph N/A   Overcast
4:16 AM 71.6 °F 60.8 °F 69% 29.63 in 10.0 mi WNW 13.8 mph 21.9 mph N/A   Overcast
4:36 AM 71.6 °F 60.8 °F 69% 29.63 in 10.0 mi WNW 11.5 mph 23.0 mph N/A   Overcast
4:56 AM 71.6 °F 57.2 °F 60% 29.64 in 10.0 mi NW 16.1 mph 24.2 mph N/A   Overcast
5:16 AM 69.8 °F 60.8 °F 73% 29.65 in 10.0 mi NNW 12.7 mph 25.3 mph N/A   Overcast
5:36 AM 69.8 °F 60.8 °F 73% 29.66 in 7.0 mi NW 15.0 mph 27.6 mph N/A Rain Rain
5:57 AM - - N/A% - 10.0 mi North 10.4 mph - N/A Rain Light Rain
6:16 AM 64.4 °F 60.8 °F 88% 29.68 in 10.0 mi North 10.4 mph 23.0 mph 0.04 in Rain Light Rain
6:36 AM 64.4 °F 60.8 °F 88% 29.69 in 10.0 mi NNW 8.1 mph - 0.05 in Rain Light Rain
6:56 AM 66.2 °F 60.8 °F 83% 29.69 in 10.0 mi NNW 5.8 mph - N/A   Overcast
7:16 AM 66.2 °F 59.0 °F 78% 29.71 in 10.0 mi NNW 9.2 mph 16.1 mph N/A   Overcast
7:36 AM 66.2 °F 57.2 °F 73% 29.71 in 10.0 mi North 17.3 mph 25.3 mph N/A   Overcast
7:56 AM 64.4 °F 57.2 °F 77% 29.73 in 10.0 mi North 12.7 mph 18.4 mph N/A   Overcast
8:17 AM 64.4 °F 57.2 °F 77% 29.75 in 10.0 mi NNE 9.2 mph 21.9 mph N/A Rain Light Rain
8:36 AM 64.4 °F 57.2 °F 77% 29.75 in 10.0 mi North 11.5 mph - N/A   Overcast
8:56 AM 64.4 °F 57.2 °F 77% 29.76 in 10.0 mi North 9.2 mph 18.4 mph N/A   Mostly Cloudy
9:16 AM 64.4 °F 55.4 °F 73% 29.77 in 10.0 mi North 13.8 mph 19.6 mph N/A   Mostly Cloudy
9:36 AM 66.2 °F 55.4 °F 68% 29.78 in 10.0 mi North 6.9 mph 18.4 mph N/A   Mostly Cloudy
9:56 AM 66.2 °F 55.4 °F 68% 29.79 in 10.0 mi North 10.4 mph 21.9 mph N/A   Overcast
10:16 AM 66.2 °F 57.2 °F 73% 29.80 in 10.0 mi North 9.2 mph 18.4 mph N/A   Mostly Cloudy
10:37 AM 66.2 °F 55.4 °F 68% 29.80 in 10.0 mi North 15.0 mph 21.9 mph N/A   Mostly Cloudy
10:56 AM 69.8 °F 57.2 °F 64% 29.80 in 10.0 mi North 10.4 mph 23.0 mph N/A   Mostly Cloudy
11:16 AM 69.8 °F 57.2 °F 64% 29.81 in 10.0 mi North 13.8 mph 25.3 mph N/A   Mostly Cloudy
11:36 AM 69.8 °F 55.4 °F 60% 29.83 in 10.0 mi North 15.0 mph 20.7 mph N/A   Mostly Cloudy
11:56 AM 69.8 °F 57.2 °F 64% 29.83 in 10.0 mi North 12.7 mph 24.2 mph N/A   Overcast
12:16 PM 69.8 °F 57.2 °F 64% 29.84 in 10.0 mi NNW 11.5 mph 19.6 mph N/A   Mostly Cloudy
12:36 PM 69.8 °F 57.2 °F 64% 29.85 in 10.0 mi NNW 10.4 mph 19.6 mph N/A   Overcast
12:56 PM 69.8 °F 57.2 °F 64% 29.86 in 10.0 mi North 10.4 mph 17.3 mph N/A   Overcast
1:16 PM 68.0 °F 55.4 °F 64% 29.87 in 10.0 mi North 8.1 mph 16.1 mph N/A   Overcast
1:38 PM 69.8 °F 55.4 °F 60% 29.87 in 10.0 mi North 10.4 mph 16.1 mph N/A   Overcast
1:56 PM 69.8 °F 55.4 °F 60% 29.88 in 10.0 mi North 12.7 mph 17.3 mph N/A   Overcast
2:16 PM 71.6 °F 55.4 °F 57% 29.88 in 10.0 mi North 9.2 mph 17.3 mph N/A   Scattered Clouds
2:36 PM 71.6 °F 55.4 °F 57% 29.89 in 10.0 mi North 15.0 mph - N/A   Scattered Clouds
2:56 PM 71.6 °F 55.4 °F 57% 29.88 in 10.0 mi North 10.4 mph 17.3 mph N/A   Scattered Clouds
3:19 PM 73.4 °F 53.6 °F 50% 29.89 in 10.0 mi North 10.4 mph 20.7 mph N/A   Scattered Clouds
3:36 PM 73.4 °F 53.6 °F 50% 29.90 in 10.0 mi North 12.7 mph 20.7 mph N/A   Scattered Clouds
3:56 PM 73.4 °F 51.8 °F 47% 29.90 in 10.0 mi NNW 11.5 mph 18.4 mph N/A   Scattered Clouds
4:16 PM 71.6 °F 53.6 °F 53% 29.90 in 10.0 mi North 10.4 mph 16.1 mph N/A   Scattered Clouds
4:36 PM 73.4 °F 53.6 °F 50% 29.90 in 10.0 mi North 8.1 mph 16.1 mph N/A   Scattered Clouds
4:56 PM 73.4 °F 53.6 °F 50% 29.91 in 10.0 mi NNW 9.2 mph 20.7 mph N/A   Mostly Cloudy
5:16 PM 73.4 °F 53.6 °F 50% 29.91 in 10.0 mi NNW 5.8 mph - N/A   Scattered Clouds
5:36 PM 73.4 °F 55.4 °F 53% 29.91 in 10.0 mi NW 6.9 mph - N/A   Clear
5:56 PM 73.4 °F 55.4 °F 53% 29.90 in 10.0 mi NW 8.1 mph - N/A   Clear
6:16 PM 73.4 °F 55.4 °F 53% 29.90 in 10.0 mi WNW 8.1 mph - N/A   Clear
6:36 PM 73.4 °F 55.4 °F 53% 29.90 in 10.0 mi WNW 5.8 mph - N/A   Clear
6:56 PM 73.4 °F 55.4 °F 53% 29.91 in 10.0 mi NW 4.6 mph - N/A   Clear
7:16 PM 73.4 °F 55.4 °F 53% 29.91 in 10.0 mi West 5.8 mph - N/A   Clear
7:36 PM 73.4 °F 57.2 °F 57% 29.92 in 10.0 mi West 3.5 mph - N/A   Clear
7:56 PM 71.6 °F 59.0 °F 64% 29.92 in 10.0 mi WSW 3.5 mph - N/A   Clear
8:16 PM 69.8 °F 60.8 °F 73% 29.92 in 10.0 mi WSW 3.5 mph - N/A   Clear
8:36 PM 66.2 °F 60.8 °F 83% 29.92 in 10.0 mi Calm Calm - N/A   Clear
8:56 PM 66.2 °F 59.0 °F 78% 29.93 in 10.0 mi SW 4.6 mph - N/A   Clear
9:16 PM 64.4 °F 59.0 °F 83% 29.93 in 10.0 mi SW 3.5 mph - N/A   Clear
9:36 PM 64.4 °F 59.0 °F 83% 29.94 in 10.0 mi SSW 4.6 mph - N/A   Clear
9:57 PM 64.4 °F 60.8 °F 88% 29.95 in 10.0 mi SW 5.8 mph - N/A   Clear
10:16 PM 64.4 °F 57.2 °F 77% 29.95 in 10.0 mi SW 5.8 mph - N/A   Clear
10:36 PM 66.2 °F 57.2 °F 73% 29.96 in 10.0 mi SW 5.8 mph - N/A   Clear
10:56 PM 64.4 °F 57.2 °F 77% 29.96 in 10.0 mi SW 4.6 mph - N/A   Clear
11:16 PM 64.4 °F 59.0 °F 83% 29.96 in 10.0 mi SW 4.6 mph - N/A   Clear
11:36 PM 64.4 °F 59.0 °F 83% 29.96 in 7.0 mi SW 3.5 mph - N/A   Clear
11:56 PM 64.4 °F 59.0 °F 83% 29.96 in 10.0 mi WSW 4.6 mph - N/A   Clear